| time (UTC) | temp F | wind direction | speed knots | gust knots | rain 1hr in | rain 24hr in | rain mn in | humidity % | barometer mb |
| 20260504042006 | 57 | 241 | 0.9 | 3.5 | 0.00 | 0.00 | 0.00 | 64 | 1005.6 |
| 20260504041505 | 57 | 211 | 0.0 | 4.3 | 0.00 | 0.00 | 0.00 | 63 | 1005.5 |
| 20260504041005 | 58 | 211 | 0.0 | 5.2 | 0.00 | 0.00 | 0.00 | 63 | 1005.5 |
| 20260504040006 | 58 | 227 | 0.0 | 4.3 | 0.00 | 0.00 | 0.00 | 62 | 1005.4 |
| 20260504035505 | 58 | 225 | 0.9 | 4.3 | 0.00 | 0.00 | 0.00 | 61 | 1005.5 |
| 20260504034505 | 58 | 220 | 0.9 | 3.5 | 0.00 | 0.00 | 0.00 | 61 | 1005.6 |
| 20260504033504 | 58 | 228 | 0.0 | 2.6 | 0.00 | 0.00 | 0.00 | 61 | 1005.8 |
| 20260504033006 | 58 | 236 | 0.0 | 2.6 | 0.00 | 0.00 | 0.00 | 61 | 1005.8 |
| 20260504032505 | 58 | 236 | 0.0 | 2.6 | 0.00 | 0.00 | 0.00 | 61 | 1005.8 |
| 20260504032006 | 58 | 240 | 0.0 | 1.7 | 0.00 | 0.00 | 0.00 | 61 | 1005.9 |
| 20260504031505 | 58 | 240 | 0.0 | 1.7 | 0.00 | 0.00 | 0.00 | 61 | 1006.0 |
| 20260504031005 | 58 | 227 | 0.0 | 1.7 | 0.00 | 0.00 | 0.00 | 60 | 1006.0 |
| 20260504025507 | 59 | 230 | 0.0 | 2.6 | 0.00 | 0.00 | 0.00 | 60 | 1006.0 |
| 20260504025006 | 59 | 230 | 0.0 | 2.6 | 0.00 | 0.00 | 0.00 | 59 | 1006.1 |
| 20260504024505 | 59 | 230 | 0.0 | 1.7 | 0.00 | 0.00 | 0.00 | 59 | 1006.1 |
| 20260504024005 | 59 | 229 | 0.0 | 5.2 | 0.00 | 0.00 | 0.00 | 59 | 1006.0 |
| 20260504023505 | 60 | 227 | 0.0 | 5.2 | 0.00 | 0.00 | 0.00 | 58 | 1006.0 |
| 20260504023006 | 60 | 211 | 0.0 | 1.7 | 0.00 | 0.00 | 0.00 | 58 | 1006.0 |
| 20260504022506 | 60 | 211 | 0.0 | 1.7 | 0.00 | 0.00 | 0.00 | 57 | 1006.0 |
| 20260504022006 | 60 | 211 | 0.0 | 1.7 | 0.00 | 0.00 | 0.00 | 57 | 1006.0 |
| 20260504021505 | 60 | 211 | 0.0 | 2.6 | 0.00 | 0.00 | 0.00 | 57 | 1005.9 |
| 20260504021005 | 61 | 211 | 0.0 | 2.6 | 0.00 | 0.00 | 0.00 | 56 | 1005.9 |
| 20260504020505 | 61 | 228 | 0.0 | 1.7 | 0.00 | 0.00 | 0.00 | 56 | 1005.8 |
| 20260504015504 | 61 | 229 | 0.9 | 4.3 | 0.00 | 0.00 | 0.00 | 56 | 1005.7 |
| 20260504015005 | 61 | 229 | 0.9 | 4.3 | 0.00 | 0.00 | 0.00 | 55 | 1005.7 |
| 20260504014505 | 61 | 236 | 0.9 | 6.1 | 0.00 | 0.00 | 0.00 | 54 | 1005.5 |
| 20260504014006 | 62 | 229 | 0.9 | 6.1 | 0.00 | 0.00 | 0.00 | 55 | 1005.6 |
| 20260504013505 | 62 | 253 | 0.0 | 4.3 | 0.00 | 0.00 | 0.00 | 54 | 1005.5 |
| 20260504013005 | 62 | 229 | 0.9 | 3.5 | 0.00 | 0.00 | 0.00 | 54 | 1005.5 |
| 20260504012505 | 62 | 230 | 0.9 | 3.5 | 0.00 | 0.00 | 0.00 | 53 | 1005.5 |
| 20260504012004 | 62 | 263 | 0.9 | 4.3 | 0.00 | 0.00 | 0.00 | 53 | 1005.5 |
| 20260504011505 | 62 | 256 | 0.9 | 4.3 | 0.00 | 0.00 | 0.00 | 53 | 1005.5 |
| 20260504011005 | 63 | 225 | 0.9 | 3.5 | 0.00 | 0.00 | 0.00 | 52 | 1005.4 |
| 20260504010505 | 63 | 248 | 0.9 | 7.0 | 0.00 | 0.00 | 0.00 | 51 | 1005.4 |
| 20260504010007 | 63 | 237 | 1.7 | 7.0 | 0.00 | 0.00 | 0.00 | 51 | 1005.4 |
| 20260504005506 | 64 | 205 | 0.9 | 4.3 | 0.00 | 0.00 | 0.00 | 50 | 1005.4 |
| 20260504004505 | 64 | 198 | 0.0 | 5.2 | 0.00 | 0.00 | 0.00 | 49 | 1005.4 |
| 20260504004007 | 65 | 225 | 0.9 | 5.2 | 0.00 | 0.00 | 0.00 | 49 | 1005.5 |
| 20260504003504 | 65 | 213 | 0.9 | 4.3 | 0.00 | 0.00 | 0.00 | 48 | 1005.5 |
| 20260504003006 | 65 | 207 | 0.9 | 2.6 | 0.00 | 0.00 | 0.00 | 47 | 1005.6 |
| 20260504002007 | 66 | 232 | 0.9 | 4.3 | 0.00 | 0.00 | 0.00 | 46 | 1005.6 |
| 20260504001505 | 66 | 242 | 1.7 | 5.2 | 0.00 | 0.00 | 0.00 | 46 | 1005.5 |
| 20260504001008 | 66 | 211 | 1.7 | 6.1 | 0.00 | 0.00 | 0.00 | 45 | 1005.6 |
| 20260503235007 | 67 | 229 | 1.7 | 7.0 | 0.00 | 0.00 | 0.00 | 44 | 1005.5 |
| 20260503234506 | 67 | 270 | 1.7 | 7.0 | 0.00 | 0.00 | 0.00 | 44 | 1005.5 |
| 20260503234009 | 67 | 261 | 1.7 | 7.0 | 0.00 | 0.00 | 0.00 | 44 | 1005.5 |
| 20260503233506 | 67 | 277 | 1.7 | 7.0 | 0.00 | 0.00 | 0.00 | 44 | 1005.5 |
| 20260503233007 | 67 | 292 | 2.6 | 6.1 | 0.00 | 0.00 | 0.00 | 43 | 1005.5 |
| 20260503232506 | 67 | 218 | 2.6 | 7.0 | 0.00 | 0.00 | 0.00 | 43 | 1005.4 |
| 20260503232006 | 68 | 196 | 2.6 | 9.6 | 0.00 | 0.00 | 0.00 | 44 | 1005.5 |
| 20260503230508 | 68 | 214 | 2.6 | 9.6 | 0.00 | 0.00 | 0.00 | 42 | 1005.5 |
| 20260503230010 | 68 | 257 | 2.6 | 9.6 | 0.00 | 0.00 | 0.00 | 41 | 1005.6 |
| 20260503225509 | 68 | 288 | 2.6 | 7.0 | 0.00 | 0.00 | 0.00 | 42 | 1005.6 |
| 20260503225006 | 68 | 223 | 3.5 | 7.0 | 0.00 | 0.00 | 0.00 | 41 | 1005.7 |
| 20260503224505 | 69 | 210 | 2.6 | 10.4 | 0.00 | 0.00 | 0.00 | 40 | 1005.7 |
| 20260503224007 | 70 | 231 | 1.7 | 11.3 | 0.00 | 0.00 | 0.00 | 39 | 1005.7 |
| 20260503223504 | 70 | 200 | 1.7 | 8.7 | 0.00 | 0.00 | 0.00 | 41 | 1005.8 |
| 20260503223005 | 69 | 242 | 1.7 | 7.0 | 0.00 | 0.00 | 0.00 | 41 | 1005.8 |
| 20260503222007 | 69 | 252 | 0.9 | 10.4 | 0.00 | 0.00 | 0.00 | 40 | 1005.8 |
| 20260503221506 | 69 | 209 | 1.7 | 10.4 | 0.00 | 0.00 | 0.00 | 41 | 1005.9 |
| 20260503221011 | 69 | 225 | 1.7 | 8.7 | 0.00 | 0.00 | 0.00 | 43 | 1005.9 |
| 20260503220505 | 68 | 206 | 1.7 | 5.2 | 0.00 | 0.00 | 0.00 | 41 | 1006.0 |
| 20260503220007 | 67 | 240 | 1.7 | 7.0 | 0.00 | 0.00 | 0.00 | 41 | 1006.1 |
| 20260503215504 | 66 | 206 | 2.6 | 11.3 | 0.00 | 0.00 | 0.00 | 42 | 1006.0 |
| 20260503214506 | 68 | 186 | 2.6 | 7.8 | 0.00 | 0.00 | 0.00 | 41 | 1006.1 |
| 20260503214005 | 68 | 232 | 1.7 | 8.7 | 0.00 | 0.00 | 0.00 | 41 | 1006.2 |
| 20260503213506 | 68 | 219 | 1.7 | 15.6 | 0.00 | 0.00 | 0.00 | 40 | 1006.2 |
| 20260503213006 | 68 | 208 | 2.6 | 15.6 | 0.00 | 0.00 | 0.00 | 42 | 1006.4 |
| 20260503212505 | 67 | 205 | 1.7 | 12.2 | 0.00 | 0.00 | 0.00 | 41 | 1006.3 |
| 20260503211505 | 66 | 220 | 2.6 | 8.7 | 0.00 | 0.00 | 0.00 | 43 | 1006.7 |
| 20260503211004 | 66 | 287 | 2.6 | 9.6 | 0.00 | 0.00 | 0.00 | 41 | 1006.9 |
| 20260503210506 | 66 | 263 | 2.6 | 9.6 | 0.00 | 0.00 | 0.00 | 42 | 1007.0 |
| 20260503205504 | 67 | 215 | 3.5 | 13.0 | 0.00 | 0.00 | 0.00 | 39 | 1007.1 |
| 20260503205006 | 67 | 226 | 3.5 | 13.0 | 0.00 | 0.00 | 0.00 | 38 | 1007.2 |
| 20260503204505 | 67 | 242 | 3.5 | 10.4 | 0.00 | 0.00 | 0.00 | 40 | 1007.2 |
| 20260503204005 | 67 | 227 | 3.5 | 10.4 | 0.00 | 0.00 | 0.00 | 39 | 1007.3 |
| 20260503203007 | 68 | 210 | 3.5 | 12.2 | 0.00 | 0.00 | 0.00 | 38 | 1007.6 |
| 20260503202505 | 68 | 248 | 3.5 | 9.6 | 0.00 | 0.00 | 0.00 | 39 | 1007.5 |
| 20260503202006 | 68 | 193 | 3.5 | 10.4 | 0.00 | 0.00 | 0.00 | 40 | 1007.7 |
| 20260503201007 | 67 | 226 | 3.5 | 11.3 | 0.00 | 0.00 | 0.00 | 41 | 1007.7 |
| 20260503200504 | 66 | 173 | 3.5 | 10.4 | 0.00 | 0.00 | 0.00 | 40 | 1007.7 |
| 20260503195506 | 66 | 252 | 2.6 | 10.4 | 0.00 | 0.00 | 0.00 | 45 | 1007.8 |
| 20260503195010 | 65 | 225 | 2.6 | 7.8 | 0.00 | 0.00 | 0.00 | 45 | 1008.0 |
| 20260503194506 | 65 | 163 | 2.6 | 8.7 | 0.00 | 0.00 | 0.00 | 47 | 1008.0 |
| 20260503194008 | 64 | 220 | 1.7 | 8.7 | 0.00 | 0.00 | 0.00 | 49 | 1008.1 |
| 20260503193011 | 63 | 266 | 2.6 | 9.6 | 0.00 | 0.00 | 0.00 | 50 | 1008.3 |
| 20260503192506 | 63 | 151 | 2.6 | 9.6 | 0.00 | 0.00 | 0.00 | 48 | 1008.4 |
| 20260503192013 | 62 | 206 | 1.7 | 9.6 | 0.00 | 0.00 | 0.00 | 53 | 1008.4 |
| 20260503191508 | 62 | 211 | 1.7 | 9.6 | 0.00 | 0.00 | 0.00 | 54 | 1008.4 |
| 20260503190506 | 61 | 188 | 2.6 | 11.3 | 0.00 | 0.00 | 0.00 | 53 | 1008.6 |
| 20260503185506 | 60 | 169 | 1.7 | 8.7 | 0.00 | 0.00 | 0.00 | 57 | 1008.7 |
| 20260503185005 | 59 | 155 | 1.7 | 7.8 | 0.00 | 0.00 | 0.00 | 56 | 1008.8 |
| 20260503184505 | 59 | 236 | 1.7 | 7.8 | 0.00 | 0.00 | 0.00 | 58 | 1009.1 |
| 20260503184007 | 59 | 204 | 1.7 | 7.8 | 0.00 | 0.00 | 0.00 | 60 | 1009.2 |
| 20260503183506 | 58 | 190 | 1.7 | 6.1 | 0.00 | 0.00 | 0.00 | 60 | 1009.5 |
| 20260503182506 | 56 | 224 | 0.9 | 8.7 | 0.00 | 0.00 | 0.00 | 64 | 1009.5 |
| 20260503182008 | 56 | 213 | 0.9 | 8.7 | 0.00 | 0.00 | 0.00 | 64 | 1009.6 |
| 20260503181506 | 55 | 247 | 0.9 | 5.2 | 0.00 | 0.00 | 0.00 | 66 | 1009.7 |
| 20260503181008 | 55 | 222 | 1.7 | 6.1 | 0.00 | 0.00 | 0.00 | 63 | 1009.9 |
| 20260503180506 | 55 | 178 | 1.7 | 5.2 | 0.00 | 0.00 | 0.00 | 67 | 1010.0 |
| 20260503180005 | 54 | 219 | 0.9 | 6.1 | 0.00 | 0.00 | 0.00 | 68 | 1010.1 |
| 20260503175506 | 54 | 215 | 0.0 | 2.6 | 0.00 | 0.00 | 0.00 | 70 | 1010.1 |
| 20260503175005 | 53 | 155 | 0.9 | 2.6 | 0.00 | 0.00 | 0.00 | 71 | 1010.2 |
| 20260503174505 | 52 | 227 | 0.9 | 2.6 | 0.00 | 0.00 | 0.00 | 73 | 1010.6 |
| 20260503174006 | 52 | 313 | 0.9 | 2.6 | 0.00 | 0.00 | 0.00 | 74 | 1010.9 |
| 20260503173505 | 52 | 198 | 0.9 | 2.6 | 0.00 | 0.00 | 0.00 | 75 | 1011.1 |
| 20260503173007 | 51 | 221 | 0.9 | 3.5 | 0.00 | 0.00 | 0.00 | 75 | 1011.1 |
| 20260503172505 | 51 | 259 | 0.9 | 3.5 | 0.00 | 0.00 | 0.00 | 77 | 1011.2 |
| 20260503171504 | 51 | 242 | 0.9 | 5.2 | 0.00 | 0.00 | 0.00 | 77 | 1011.9 |
| 20260503171004 | 51 | 234 | 0.9 | 5.2 | 0.00 | 0.00 | 0.00 | 76 | 1011.8 |
| 20260503151006 | 54 | 291 | 1.7 | 7.8 | 0.00 | 0.00 | 0.00 | 57 | 1013.2 |
| 20260503150506 | 53 | 275 | 1.7 | 6.1 | 0.00 | 0.00 | 0.00 | 58 | 1013.2 |
| 20260503131004 | 48 | 227 | 0.9 | 7.0 | 0.00 | 0.00 | 0.00 | 62 | 1013.8 |
| 20260503090503 | 43 | 231 | 0.0 | 3.5 | 0.00 | 0.00 | 0.00 | 62 | 1014.0 |
| 20260503081505 | 44 | 210 | 0.0 | 0.0 | 0.00 | 0.00 | 0.00 | 60 | 1014.0 |
| 20260503081005 | 44 | 209 | 0.0 | 0.0 | 0.00 | 0.00 | 0.00 | 60 | 1014.0 |
| 20260503080504 | 44 | 211 | 0.0 | 0.0 | 0.00 | 0.00 | 0.00 | 60 | 1014.1 |
| 20260503072504 | 44 | 249 | 0.0 | 0.0 | 0.00 | 0.00 | 0.00 | 59 | 1014.2 |
| 20260503072005 | 44 | 249 | 0.0 | 0.0 | 0.00 | 0.00 | 0.00 | 60 | 1014.2 |
| 20260503071504 | 44 | 245 | 0.0 | 0.0 | 0.00 | 0.00 | 0.00 | 59 | 1014.3 |
| 20260503071005 | 44 | 245 | 0.0 | 0.0 | 0.00 | 0.00 | 0.00 | 59 | 1014.3 |
| 20260503070504 | 44 | 245 | 0.0 | 0.0 | 0.00 | 0.00 | 0.00 | 59 | 1014.3 |
| 20260503055005 | 44 | 242 | 0.0 | 0.0 | 0.00 | 0.00 | 0.00 | 58 | 1015.0 |
| 20260503054506 | 44 | 242 | 0.0 | 0.0 | 0.00 | 0.00 | 0.00 | 57 | 1015.0 |
| 20260503054008 | 44 | 242 | 0.0 | 0.0 | 0.00 | 0.00 | 0.00 | 57 | 1015.1 |
| 20260503053505 | 44 | 242 | 0.0 | 0.0 | 0.00 | 0.00 | 0.00 | 57 | 1015.2 |
| 20260503052504 | 44 | 244 | 0.0 | 0.0 | 0.00 | 0.00 | 0.00 | 57 | 1015.1 |
| 20260503052007 | 44 | 244 | 0.0 | 0.0 | 0.00 | 0.00 | 0.00 | 58 | 1015.3 |
| 20260503051507 | 44 | 244 | 0.0 | 0.0 | 0.00 | 0.00 | 0.00 | 57 | 1015.3 |
| 20260503050507 | 45 | 244 | 0.0 | 0.0 | 0.00 | 0.00 | 0.00 | 57 | 1015.3 |
| 20260503045505 | 45 | 244 | 0.0 | 0.0 | 0.00 | 0.00 | 0.00 | 57 | 1015.5 |
| 20260503045006 | 45 | 244 | 0.0 | 0.0 | 0.00 | 0.00 | 0.00 | 57 | 1015.5 |
| 20260503044004 | 45 | 244 | 0.0 | 0.0 | 0.00 | 0.00 | 0.00 | 57 | 1015.5 |
| 20260503043505 | 45 | 244 | 0.0 | 0.0 | 0.00 | 0.00 | 0.00 | 56 | 1015.4 |
| 20260503043005 | 45 | 244 | 0.0 | 0.0 | 0.00 | 0.00 | 0.00 | 55 | 1015.5 |